Hlavní strana
METAR-TAF:

METAR-TAF

Letiště :

Waycross, Georgie, Spojené státy americké

zeměpisná šířka: 31-15N, zeměpisná délka: 082-24W, výška: 46 m

Aktuální stav počasí

Zpráva byla vytvořena před 18 minutami, v 06:35 UTC
Jihozápadní vítr 3 kt
Teplota 19°C
Vlhkost vzduchu 83%
Tlak 1020 hPa
Viditelnost: 11.3 km
Jasno

METAR: KAYS 190635Z AUTO 23003KT 7SM CLR 19/16 A3012 RMK AO2 T01890162 TSNO

Čas: 01:53 (06:53 UTC)


TAF: chybějící

Stav a předpovědi počasí z více než 4 000 letišť (zprávy METAR a TAF).

Červené a žluté tečky na mapě představují dostupné meteorologické stanice.

Když kurzor umístíte na tečku, zobrazí se název stanice.

Pak kliknutím zobrazíte stav a předpověď počasí.

Chcete-li změnit mapu, kliknutím na zelené tlačítko se znaménkem +mapu přiblížíte, kliknutím na zelené tlačítko se znaménkem – mapu oddálíte a kliknutím na zelené šipky přejdete na sousední mapy.


METAR-TAF: